Stations météo

réclame
Mon MeteoGroup
Lycksele, Suède (2261): Température de l'air & dewpoint: 19.11.2017 02:00:00 - 25.11.2017 02:00:00 (CET)Lycksele, Suède (2261): Vitesse du vent & gusts: 19.11.2017 02:00:00 - 25.11.2017 02:00:00 (CET)Lycksele, Suède (2261): Direction du vent: 19.11.2017 02:00:00 - 25.11.2017 02:00:00 (CET)Lycksele, Suède (2261): reduced air pressure: 19.11.2017 02:00:00 - 25.11.2017 02:00:00 (CET)Lycksele, Suède (2261): visibility: 19.11.2017 02:00:00 - 25.11.2017 02:00:00 (CET)Lycksele, Suède (2261): Quantités de précipitations: 19.11.2017 02:00:00 - 25.11.2017 02:00:00 (CET)
Date & Time tt [°C] td [°C] ff [km/h] ff [knt] fx [km/h] fx [knt] dd ppp [hPa] vv [km] rr [mm]
25.11.2017 02:00:00 -3,5 -3,5 8 4 13 7 SE 997,5 46 0,0
25.11.2017 01:00:00 -3,0 -3,0 9 5 18 10 SE 997,2 50 0,0
25.11.2017 00:00:00 -2,0 -2,0 10 6 20 11 SE 997,0 50 0,0
24.11.2017 23:00:00 -1,5 -1,5 14 7 21 11 SE 996,6 50 0,0
24.11.2017 22:00:00 -0,3 -0,9 13 7 19 10 SE 996,4 50 0,0
24.11.2017 21:00:00 0,1 -0,5 10 5 19 11 SE 995,7 50 0,0
24.11.2017 20:00:00 -0,5 -1,3 10 5 20 11 SE 995,7 50 0,0
24.11.2017 19:00:00 1,2 -0,9 11 6 18 10 ESE 995,2 50 0,0
24.11.2017 18:00:00 1,3 0,1 9 5 16 9 SE 995,1 50 0,0
24.11.2017 17:00:00 1,1 0,5 12 6 17 9 ESE 994,5 49 0,0
24.11.2017 16:00:00 1,1 1,1 10 6 23 12 SE 993,9 45 0,0
24.11.2017 15:00:00 0,8 0,8 11 6 16 8 SE 993,1 34 0,0
24.11.2017 14:00:00 1,8 1,8 10 6 16 9 SSE 992,5 39 0,0
24.11.2017 13:00:00 1,5 1,5 13 7 18 10 SE 992,4 30 0,0
24.11.2017 12:00:00 1,3 1,3 9 5 18 10 SE 992,7 30 0,0
24.11.2017 11:00:00 1,5 1,5 13 7 24 13 SSE 992,5 35 0,0
24.11.2017 10:00:00 1,5 1,5 16 9 24 13 ESE 992,3 46 0,0
24.11.2017 09:00:00 0,8 0,8 16 9 20 11 ESE 992,0 47 0,0
24.11.2017 08:00:00 0,7 0,7 8 5 17 9 SE 991,1 41 0,0
24.11.2017 07:00:00 2,0 2,0 9 5 16 9 SE 990,3 45 0,0
24.11.2017 06:00:00 2,0 2,0 10 5 13 7 SE 989,2 25 0,0
24.11.2017 05:00:00 3,0 3,0 13 7 19 10 SE 988,4 23 0,0
24.11.2017 04:00:00 3,3 3,3 13 7 26 14 SE 987,7 37 0,3
24.11.2017 03:00:00 3,2 3,2 19 10 36 19 SE 987,0 10 0,1
24.11.2017 02:00:00 4,2 4,2 21 11 36 19 SE 986,3 10 0,4
24.11.2017 01:00:00 4,1 4,1 22 12 39 21 SE 986,1 26 0,6
24.11.2017 00:00:00 4,1 4,1 24 13 40 22 SSE 986,5 9 0,7
23.11.2017 23:00:00 2,5 2,5 14 8 24 13 SE 987,2 5 1,2
23.11.2017 22:00:00 1,5 1,5 17 9 22 12 SE 988,2 6 1,0
23.11.2017 21:00:00 1,2 1,2 16 9 29 15 SE 988,9 44 0,2
23.11.2017 20:00:00 0,9 0,9 21 11 34 19 ESE 989,4 10 1,0
23.11.2017 19:00:00 0,6 0,6 26 14 45 25 ESE 989,6 7 1,5
23.11.2017 18:00:00 0,1 0,0 31 17 43 23 ESE 990,2 7 1,2
23.11.2017 17:00:00 -1,4 -1,5 29 15 42 23 ESE 991,0 2,4 1,6
23.11.2017 16:00:00 -2,1 -2,2 33 18 50 27 ESE 992,0 1,0 0,4
23.11.2017 15:00:00 -2,5 -3,0 36 19 50 27 ESE 993,0 1,7 0,3
23.11.2017 14:00:00 -2,7 -3,2 28 15 48 26 ESE 994,3 1,0 0,5
23.11.2017 13:00:00 -2,8 -3,6 33 18 52 28 ESE 995,7 1,8 0,4
23.11.2017 12:00:00 -2,7 -3,8 35 19 56 31 ESE 997,1 1,7 0,5
23.11.2017 11:00:00 -2,9 -3,7 37 20 59 32 ESE 997,8 1,8 0,7
23.11.2017 10:00:00 -3,0 -3,7 37 20 61 33 ESE 999,3 0,9 0,4
23.11.2017 09:00:00 -3,2 -4,0 36 19 50 27 ESE 1000,5 1,2 0,3
23.11.2017 08:00:00 -3,4 -4,2 32 17 49 26 ESE 1002,1 1,3 0,2
23.11.2017 07:00:00 -3,4 -4,4 27 15 44 24 ESE 1003,4 1,9 0,1
23.11.2017 06:00:00 -3,4 -4,4 29 15 47 25 ESE 1004,8 2,1 0,4
23.11.2017 05:00:00 -3,5 -4,2 29 16 59 32 ESE 1005,7 1,6 0,3
23.11.2017 04:00:00 -3,4 -4,1 23 12 39 21 ESE 1006,7 1,8 0,0
23.11.2017 03:00:00 -3,2 -4,0 27 15 45 24 ESE 1007,7 3,3 0,4
23.11.2017 02:00:00 -3,3 -3,6 30 16 47 25 ESE 1008,6 3,7 0,1
23.11.2017 01:00:00 -3,2 -3,5 29 16 41 22 ESE 1009,8 3,7 0,1
23.11.2017 00:00:00 -3,0 -3,4 22 12 39 21 ESE 1010,7 3,5 0,1
22.11.2017 23:00:00 -2,9 -3,2 25 14 40 22 ESE 1011,4 11 0,0
22.11.2017 22:00:00 -2,6 -3,1 26 14 35 19 ESE 1011,7 12 0,0
22.11.2017 21:00:00 -2,3 -3,1 24 13 36 19 ESE 1012,4 10 0,0
22.11.2017 20:00:00 -2,3 -3,3 21 11 38 20 ESE 1013,0 8 0,0
22.11.2017 19:00:00 -2,7 -3,4 19 10 31 17 ESE 1013,3 11 0,0
22.11.2017 18:00:00 -2,8 -3,5 16 9 28 15 ESE 1013,7 8 0,1
22.11.2017 17:00:00 -3,2 -3,7 13 7 23 12 ESE 1014,0 4,7 0,0
22.11.2017 16:00:00 -3,1 -3,8 16 9 27 15 ESE 1014,5 4,8 0,2
22.11.2017 15:00:00 -3,0 -3,3 11 6 22 12 ESE 1014,9 3,5 0,0
22.11.2017 14:00:00 -3,0 -3,5 12 7 29 16 ESE 1015,0 8 0,0
22.11.2017 13:00:00 -3,0 -3,4 16 8 27 15 ESE 1014,9 4,2 0,0
22.11.2017 12:00:00 -3,0 -3,5 16 9 26 14 ESE 1015,1 4,8 0,1
22.11.2017 11:00:00 -3,1 -3,5 8 4 17 9 ESE 1015,4 3,6 0,5
22.11.2017 10:00:00 -4,1 -4,4 4 2 11 6 ENE 1015,5 2,1 0,4
22.11.2017 09:00:00 -4,4 -4,7 3 2 13 7 NE 1015,4 2,9 0,4
22.11.2017 08:00:00 -4,5 -4,9 6 3 16 9 NNE 1015,3 4,8 0,3
22.11.2017 07:00:00 -3,9 -4,4 9 5 21 11 ENE 1015,1 2,1 0,2
22.11.2017 06:00:00 -3,9 -4,4 10 5 22 12 ENE 1015,0 2,5 0,0
22.11.2017 05:00:00 -3,9 -4,7 10 5 20 11 ENE 1015,1 3,6 0,0
22.11.2017 04:00:00 -4,0 -4,8 10 5 18 10 ENE 1015,1 7 0,2
22.11.2017 03:00:00 -6,7 -7,1 0 0 3 2 N 1015,3 3,0 0,4
22.11.2017 02:00:00 -7,4 -8,1 0 0 4 2 N 1015,4 2,3 0,3
22.11.2017 01:00:00 -7,6 -8,4 0 0 2 1 N 1015,2 5 0,3
22.11.2017 00:00:00 -7,8 -8,6 0 0 3 2 N 1015,3 0,9 0,5
21.11.2017 23:00:00 -7,9 -8,8 2 1 4 2 W 1015,4 3,0 0,2
21.11.2017 22:00:00 -8,2 -9,1 3 2 4 2 W 1015,4 2,6 0,2
21.11.2017 21:00:00 -8,4 -9,3 0 0 3 2 N 1015,3 2,4 0,1
21.11.2017 20:00:00 -8,7 -9,6 0 0 4 2 N 1015,2 2,9 0,2
21.11.2017 19:00:00 -8,9 -9,8 3 1 4 2 NW 1015,2 2,0 0,3
21.11.2017 18:00:00 -9,0 -9,9 3 2 8 4 NW 1015,1 1,6 0,4
21.11.2017 17:00:00 -9,2 -10,4 4 2 9 5 NW 1015,1 3,2 0,1
21.11.2017 16:00:00 -9,5 -10,7 6 3 8 4 NW 1015,1 - 0,0
21.11.2017 15:00:00 -9,9 -11,1 6 3 8 4 NW 1014,9 8 0,1
21.11.2017 14:00:00 -10,2 -11,4 6 3 13 7 NNW 1014,8 - 0,1
21.11.2017 13:00:00 -10,3 -11,8 9 5 12 7 NW 1014,7 28 0,0
21.11.2017 12:00:00 -10,8 -12,3 11 6 15 8 NW 1014,8 11 0,0
21.11.2017 11:00:00 -11,1 -12,6 10 5 12 7 NW 1014,7 3,4 0,1
21.11.2017 10:00:00 -11,5 -12,9 7 4 10 5 WNW 1014,8 3,3 0,3
21.11.2017 09:00:00 -12,3 -13,7 6 3 11 6 W 1014,5 1,8 0,3
21.11.2017 08:00:00 -12,5 -13,9 5 3 9 5 W 1014,0 15 0,0
21.11.2017 07:00:00 -12,8 -14,4 4 2 10 5 W 1013,8 14 0,0
21.11.2017 06:00:00 -13,3 -14,7 4 2 7 4 W 1013,5 20 0,0
21.11.2017 05:00:00 -13,5 -14,9 3 1 6 4 W 1013,4 14 0,0
21.11.2017 04:00:00 -14,3 -15,8 2 1 4 2 W 1013,4 50 0,0
21.11.2017 03:00:00 -14,3 -15,8 3 1 6 3 WNW 1013,3 50 0,0
21.11.2017 02:00:00 -14,7 -16,2 3 2 5 3 W 1013,1 50 0,0
21.11.2017 01:00:00 -16,0 -17,7 0 0 3 2 N 1013,2 50 0,0
21.11.2017 00:00:00 -17,9 -19,7 0 0 3 2 N 1013,1 50 0,0
20.11.2017 23:00:00 -18,0 -19,8 0 0 4 2 N 1013,2 47 0,0
20.11.2017 22:00:00 -18,3 -20,1 0 0 3 2 N 1012,8 29 0,0
20.11.2017 21:00:00 -19,7 -21,7 0 0 3 1 N 1012,8 50 0,0
20.11.2017 20:00:00 -19,9 -21,8 0 0 4 2 N 1012,3 34 0,0
20.11.2017 19:00:00 -19,0 -20,9 0 0 3 2 N 1012,1 50 0,0
20.11.2017 18:00:00 -18,4 -20,0 0 0 4 2 N 1012,1 50 0,0
20.11.2017 17:00:00 -17,7 -19,3 0 0 3 1 N 1012,0 13 0,0
20.11.2017 16:00:00 -16,4 -17,8 0 0 3 1 N 1011,8 50 0,0
20.11.2017 15:00:00 -14,7 -16,1 0 0 3 2 N 1011,6 15 0,0
20.11.2017 14:00:00 -13,5 -14,5 0 0 4 2 N 1011,1 50 0,0
20.11.2017 13:00:00 -11,8 -12,8 3 2 8 4 WNW 1011,1 50 0,0
20.11.2017 12:00:00 -10,9 -12,6 3 2 10 5 W 1011,0 50 0,1
20.11.2017 11:00:00 -10,4 -11,7 7 4 19 11 NW 1011,0 50 0,0
20.11.2017 10:00:00 -9,4 -10,9 9 5 15 8 WNW 1010,8 19 0,0
20.11.2017 09:00:00 -9,5 -11,0 9 5 16 8 WNW 1010,8 9 0,0
20.11.2017 08:00:00 -9,7 -11,3 11 6 16 9 NW 1010,3 15 0,0
20.11.2017 07:00:00 -9,6 -11,2 10 5 17 9 NW 1010,0 18 0,0
20.11.2017 06:00:00 -9,5 -11,3 10 5 16 8 NW 1009,8 16 0,0
20.11.2017 05:00:00 -9,4 -11,3 11 6 20 11 NW 1009,7 48 0,0
20.11.2017 04:00:00 -8,9 -10,8 14 8 25 14 NW 1009,6 50 0,0
20.11.2017 03:00:00 -8,3 -10,1 17 9 27 14 NNW 1009,2 50 0,0
20.11.2017 02:00:00 -8,1 -9,9 19 10 33 18 NNW 1008,8 50 0,0
20.11.2017 01:00:00 -7,6 -9,2 21 11 28 15 NW 1008,8 49 0,0
20.11.2017 00:00:00 -7,2 -8,7 16 9 28 15 NNW 1008,6 50 0,0
19.11.2017 23:00:00 -6,9 -8,4 18 10 26 14 NW 1008,4 50 0,0
19.11.2017 22:00:00 -6,6 -8,1 15 8 23 12 NW 1008,1 50 0,0
19.11.2017 21:00:00 -6,3 -7,5 11 6 17 9 NW 1007,8 50 0,0
19.11.2017 20:00:00 -6,0 -7,2 12 7 20 11 NNW 1007,2 50 0,0
19.11.2017 19:00:00 -5,7 -6,9 15 8 22 12 NNW 1006,8 50 0,0
19.11.2017 18:00:00 -5,3 -6,4 11 6 22 12 NNW 1006,4 50 0,0
19.11.2017 17:00:00 -5,1 -5,9 12 6 22 12 NNW 1006,2 26 0,0
19.11.2017 16:00:00 -5,0 -5,8 12 7 19 10 NNW 1006,1 20 0,0
19.11.2017 15:00:00 -4,7 -5,7 12 6 20 11 NNW 1005,7 16 0,0
19.11.2017 14:00:00 -4,8 -5,3 12 6 25 14 NNW 1005,4 20 0,0
19.11.2017 13:00:00 -4,7 -5,1 16 9 26 14 NNW 1004,7 23 0,0
19.11.2017 12:00:00 -4,7 -5,0 13 7 24 13 NNW 1004,4 25 0,0
19.11.2017 11:00:00 -4,9 -5,3 10 5 20 11 NNW 1004,3 27 0,0
19.11.2017 10:00:00 -5,2 -5,5 9 5 16 9 NNW 1003,8 14 0,0
19.11.2017 09:00:00 -5,2 -5,3 8 5 16 9 NNW 1003,3 10 0,0
19.11.2017 08:00:00 -5,4 -5,5 9 5 17 9 NNW 1002,6 11 0,0
19.11.2017 07:00:00 -5,8 -6,1 9 5 13 7 NW 1002,3 35 0,0
19.11.2017 06:00:00 -5,9 -6,2 8 5 16 9 NNW 1002,1 40 0,0
19.11.2017 05:00:00 -6,1 -6,4 8 5 17 9 NNW 1001,7 26 0,0
19.11.2017 04:00:00 -6,2 -6,5 10 5 18 10 NNW 1001,4 18 0,0
19.11.2017 03:00:00 -6,6 -6,9 9 5 14 7 NNW 1001,2 50 0,0
19.11.2017 02:00:00 -7,1 -7,5 9 5 15 8 NNW 1000,8 40 0,0

tt = Température de l'air
td = dewpoint
ff = Vitesse du vent
fx = gusts
dd = Direction du vent
ppp = reduced air pressure
vv = visibility
rr = Quantités de précipitations

stations d'obs. à proximité